Find Kuiper-00074

NORAD ID: 64821 Int'l Des: 2025-151 Owner: KUIP Country: US Constellation: amazon-leo operational
LEOCIRCULAR

当前视图

正在加载3D地球...

About Kuiper-00074

Kuiper-00074 (NORAD 64821) is a amazon-leo constellation satellite launched Jul 16, 2025 by KUIP of US. It operates in LEO, CIRCULAR orbit with a mass of 490.00 kg.

关于 Kuiper-00074

正在加载描述...

即将过境

Passes for default location (London). Set your location on the main map for personalized predictions.

高度历史

Loading altitude history...

两行轨道根数

1 64821U 25151F 26194.61198125 .00295997 48387-4 54032-3 0 9992
2 64821 51.8752 6.1434 0004036 270.4304 89.6247 16.00863089 55290
Epoch: Jul 13, 2026 • Age: 12 hours

当前状态

高度 279.3 km
远地点 / 近地点 N/A
速度 7.74 km/s
星下点 49.69°N, 93.56°E
发射日期 Jul 16, 2025
运行时间 0.9 years
类型 internet

技术详情

分类 Payload
质量 490.00 kg
干质量 490.00 kg
总质量 490.00 kg
长度 1.80 m
直径 0.70 m
跨度 5.00 m
形状 Box + 2 pan
制造商 KUIP
平台类型 Kuiper
阶段状态 In Orbit
所有者/国家 KUIP/US

Most Searched